Terminal Aerodrome Forecast
Issued by NWS

Home | Current Version | Previous Version | Graphics & Text | Print | Product List | Glossary Off
Versions: 1 2 3 4 5 6 7 8 9 10 11 12 13 14 15 16 17 18 19 20 21 22 23 24 25 26 27 28 29 30 31 32 33 34 35 36 37 38 39 40

797
FTUS43 KDDC 241921 AAB
TAFGCK
TAF AMD
KGCK 241921Z 2419/2518 35020G27KT P6SM BKN035
     FM242200 36020G30KT P6SM BKN040
     FM250000 02010G20KT P6SM SCT040
     FM250300 02007KT P6SM SKC
     FM250900 VRB04KT P6SM BKN100
     FM251500 20013G23KT P6SM OVC070=

USA.gov is the U.S. government's official web portal to all federal, state and local government web resources and services.